Zurück zum Katalog

CRRES

AktivWissenschaftHEO
NORAD 20712·PAYLOAD·🇺🇸 United States

Gestartet Jul 25, 1990 von Cape Canaveral Space Force Station

Loading…

Nächste Überflüge (nächste 24 Stunden)

TLE

AktuellSource: Space-Track

Epoche: Sep 14, 2026, 03:06 UTC

1 20712U 90065A   26257.12981386  .00000347  00000-0  48727-3 0  9997
2 20712  17.8825 262.3382 7074968 357.3108   0.3048  2.50161615311938

Verfolge CRRES in Echtzeit mit AllMySat

Download on the App Store